(401446) = 2010 BF95 = 2013 CY135

Discovered at WISE on 2010-01-27 by WISE.

Orbit

Orbit type: Jupiter Trojan

Note: WebGL enabled browser required.

epoch2023-09-13.0
epoch JD2460200.5
perihelion date2021-06-18.47562
perihelion JD2459383.97562
argument of perihelion (°)278.96060
ascending node (°)117.24330
inclination (°)24.24687
eccentricity0.0429255
perihelion distance (AU)4.9970780
Tisserand w.r.t. Jupiter2.8
ΔV w.r.t. Earth (km/sec)14.4
semimajor axis (AU)5.2212007
mean anomaly (°)67.45551
mean daily motion (°/day)0.08261300
aphelion distance (AU)5.445
period (years)11.93
P-vector [x]0.72944746
P-vector [y]0.66668365
P-vector [z]-0.15309904
Q-vector [x]-0.57844471
Q-vector [y]0.72066214
Q-vector [z]0.38216201
absolute magnitude13.54
phase slope0.15
uncertainty0
referenceMPEC 2024-A124
observations used209
oppositions13
arc length (days)5096
first opposition used2010
last opposition used2024
residual rms (arc-secs)0.67
perturbers coarse indicatorM-v
perturbers precise indicator003Ek
first observation date used2010-01-27.0
last observation date used2024-01-10.0
computer nameMPCLINUX
JD of orbit computation2456840.103349
perihelion JD uncertainty (days)2.0188E-02
argument of perihelion uncertainty (°)1.8443E-03
ascending node uncertainty (°)2.1437E-05
inclination uncertainty (°)1.4495E-05
eccentricity uncertainty 4.3328E-07
perihelion distance uncertainty (AU)6.3230E-06
Minimum Orbit Intersection Distances (in AU)
for orbit epoch: 2460200.5, reference: E2024-AC4
Mercury4.68452
Venus4.33307
Earth4.10151
Mars3.53754
Jupiter0.07158
Saturn3.92894
Uranus13.3336
Neptune25.0066

Observations

206 total observations over interval: 2010 01 27.29845 – 2024 01 10.369462
These data are available for download (format description).

Date (UT) J2000 RA J2000 Dec Magn Location Ref
2010 01 27.29845 03 04 25.85 -06 22 57.2   C51 – WISE MPS 335169
2010 01 27.298453 03 04 25.83 -06 22 57.1   C51 – WISE MPS 335169
2010 01 27.298580 03 04 25.82 -06 22 56.5   C51 – WISE MPS 335169
2010 01 27.430884 03 04 27.017 -06 22 06.06   C51 – WISE MPS 904316
2010 01 27.629404 03 04 29.49 -06 20 50.5   C51 – WISE MPS 335169
2010 01 27.695493 03 04 30.06 -06 20 23.2   C51 – WISE MPS 335169
2010 01 27.76171 03 04 30.80 -06 19 56.2   C51 – WISE MPS 335169
2010 01 28.026317 03 04 33.56 -06 18 14.5   C51 – WISE MPS 335169
2010 01 28.026444 03 04 33.61 -06 18 14.4   C51 – WISE MPS 335169
2010 01 28.158749 03 04 35.15 -06 17 22.3   C51 – WISE MPS 335169
2010 01 28.291053 03 04 36.37 -06 16 33.1   C51 – WISE MPS 335169
2010 12 11.35830 05 36 16.66 +05 37 48.3 19.9 V G96 – Mt. Lemmon Survey MPS 456536
2010 12 11.36580 05 36 16.41 +05 37 49.0 19.9 V G96 – Mt. Lemmon Survey MPS 456536
2010 12 11.37326 05 36 16.12 +05 37 49.2 20.2 V G96 – Mt. Lemmon Survey MPS 456536
2010 12 11.38074 05 36 15.87 +05 37 50.4 19.8 V G96 – Mt. Lemmon Survey MPS 456536
2011 12 24.48397 08 00 06.26 +18 29 33.1 20.6 V G96 – Mt. Lemmon Survey MPS 456536
2011 12 24.49007 08 00 06.04 +18 29 34.5 20.9 V G96 – Mt. Lemmon Survey MPS 456537
2011 12 24.49623 08 00 05.90 +18 29 36.1 21.2 V G96 – Mt. Lemmon Survey MPS 456537
2011 12 24.50243 08 00 05.72 +18 29 37.4 21.0 V G96 – Mt. Lemmon Survey MPS 456537
2012 01 04.28891 07 54 40.15 +19 11 26.1   691 – Steward Observatory, Kitt Peak-Spacewatch MPS 456537
2012 01 04.30670 07 54 39.55 +19 11 29.8   691 – Steward Observatory, Kitt Peak-Spacewatch MPS 456537
2012 01 04.32447 07 54 38.98 +19 11 34.2   691 – Steward Observatory, Kitt Peak-Spacewatch MPS 456537
2012 01 04.37982 07 54 37.18 +19 11 47.4 20.4 V G96 – Mt. Lemmon Survey MPS 456537
2012 01 04.38669 07 54 36.97 +19 11 49.2 20.4 V G96 – Mt. Lemmon Survey MPS 456537
2012 01 04.39360 07 54 36.72 +19 11 50.7 20.3 V G96 – Mt. Lemmon Survey MPS 456537
2012 01 04.40046 07 54 36.46 +19 11 52.2 20.5 V G96 – Mt. Lemmon Survey MPS 456537
2012 01 26.20243 07 42 17.53 +20 40 40.7 20.2 V G96 – Mt. Lemmon Survey MPS 456537
2012 01 26.20767 07 42 17.38 +20 40 41.7 20.5 V G96 – Mt. Lemmon Survey MPS 456537
2012 01 26.21295 07 42 17.17 +20 40 43.4 20.1 V G96 – Mt. Lemmon Survey MPS 456537
2012 01 26.21822 07 42 17.02 +20 40 44.7 20.6 V G96 – Mt. Lemmon Survey MPS 456537
2012 04 21.13501 07 34 57.43 +24 03 49.6 22.4 V G96 – Mt. Lemmon Survey MPS 456537
2012 04 21.14433 07 34 57.72 +24 03 49.8 21.7 V G96 – Mt. Lemmon Survey MPS 456537
2012 04 21.15366 07 34 58.00 +24 03 50.3 21.6 V G96 – Mt. Lemmon Survey MPS 456537
2012 04 21.16302 07 34 58.26 +24 03 50.5 20.9 V G96 – Mt. Lemmon Survey MPS 456537
2013 01 14.45426 10 25 57.21 +23 59 49.5 20.8 V G96 – Mt. Lemmon Survey MPS 456537
2013 01 14.46280 10 25 57.10 +23 59 52.6 20.2 V G96 – Mt. Lemmon Survey MPS 456537
2013 01 14.47127 10 25 56.89 +23 59 55.8 21.0 V G96 – Mt. Lemmon Survey MPS 456537
2013 01 14.47976 10 25 56.78 +23 59 58.1 20.6 V G96 – Mt. Lemmon Survey MPS 456537
2013 02 13.36547 10 13 16.438 +26 47 48.49 20.6 w F51 – Pan-STARRS 1, Haleakala MPS 456537
2013 02 13.37927 10 13 15.993 +26 47 52.79 20.7 w F51 – Pan-STARRS 1, Haleakala MPS 456537
2013 02 13.39308 10 13 15.558 +26 47 57.06 20.5 w F51 – Pan-STARRS 1, Haleakala MPS 456537
2013 02 13.40703 10 13 15.112 +26 48 01.37 20.4 w F51 – Pan-STARRS 1, Haleakala MPS 456537
2013 02 14.321762 10 12 46.40 +26 52 40.7 20.4 V H21 – Astronomical Research Observatory, Westfield MPS 456537
2013 02 14.339957 10 12 45.81 +26 52 46.2 20.4 V H21 – Astronomical Research Observatory, Westfield MPS 456537
2013 02 14.352492 10 12 45.42 +26 52 50.3 20.4 V H21 – Astronomical Research Observatory, Westfield MPS 456537
2013 02 17.34042 10 11 11.38 +27 07 41.9 21.2 V G84 – Mount Lemmon SkyCenter MPS 456537
2013 02 17.34207 10 11 11.31 +27 07 42.4 20.5 V G84 – Mount Lemmon SkyCenter MPS 456537
2013 02 17.34387 10 11 11.25 +27 07 42.8 20.9 V G84 – Mount Lemmon SkyCenter MPS 456537
2013 02 18.276904 10 10 41.776 +27 12 13.74 20.1 R 695 – Kitt Peak MPS 456537
2013 02 18.295735 10 10 41.153 +27 12 18.37 19.9 R 695 – Kitt Peak MPS 456537
2013 02 18.310156 10 10 40.688 +27 12 23.05 20.7 R 695 – Kitt Peak MPS 456537
2013 02 18.58709 10 10 31.93 +27 13 44.2 19.5 R E10 – Siding Spring-Faulkes Telescope South MPS 456537
2013 02 18.59274 10 10 31.75 +27 13 46.0 20.2 R E10 – Siding Spring-Faulkes Telescope South MPS 456537
2014 03 13.24607 12 34 24.68 +24 29 47.0 20.9 V G96 – Mt. Lemmon Survey MPS 505452
2014 03 13.25118 12 34 24.52 +24 29 48.0 20.7 V G96 – Mt. Lemmon Survey MPS 505452
2014 03 13.25629 12 34 24.38 +24 29 49.2 20.7 V G96 – Mt. Lemmon Survey MPS 505452
2014 03 13.26139 12 34 24.24 +24 29 51.0 20.7 V G96 – Mt. Lemmon Survey MPS 505452
2015 03 19.45984 14 45 38.227 +14 00 20.30 21.1 w F51 – Pan-STARRS 1, Haleakala MPS 592193
2015 03 19.47207 14 45 38.046 +14 00 24.02 21.0 w F51 – Pan-STARRS 1, Haleakala MPS 592193
2015 03 19.48432 14 45 37.856 +14 00 27.49 21.0 w F51 – Pan-STARRS 1, Haleakala MPS 592193
2015 03 19.49659 14 45 37.649 +14 00 31.02 21.3 w F51 – Pan-STARRS 1, Haleakala MPS 592193
2015 05 06.47492 14 25 20.937 +16 36 34.93 20.7 i F51 – Pan-STARRS 1, Haleakala MPS 606348
2015 05 06.48726 14 25 20.569 +16 36 35.36 20.5 i F51 – Pan-STARRS 1, Haleakala MPS 606348
2015 05 06.49956 14 25 20.192 +16 36 35.82 20.7 i F51 – Pan-STARRS 1, Haleakala MPS 606348
2016 04 02.54116 16 40 02.954 +01 48 53.51 21.4 r F51 – Pan-STARRS 1, Haleakala MPS 701040
2016 04 02.55425 16 40 02.855 +01 48 56.15 21.2 r F51 – Pan-STARRS 1, Haleakala MPS 701040
2016 04 02.58059 16 40 02.686 +01 49 00.91 21.1 r F51 – Pan-STARRS 1, Haleakala MPS 701040
2016 04 04.47235 16 39 49.94 +01 54 31.0 21.0 V G96 – Mt. Lemmon Survey MPS 701040
2016 04 04.47752 16 39 49.90 +01 54 32.3 21.2 V G96 – Mt. Lemmon Survey MPS 701040
2016 04 04.48268 16 39 49.88 +01 54 33.1 21.2 V G96 – Mt. Lemmon Survey MPS 701040
2016 04 04.48784 16 39 49.82 +01 54 34.2 21.5 V G96 – Mt. Lemmon Survey MPS 701040
2016 04 10.58504 16 38 50.762 +02 12 01.06 21.1 w F51 – Pan-STARRS 1, Haleakala MPS 703630
2016 04 10.59694 16 38 50.596 +02 12 03.03 21.1 w F51 – Pan-STARRS 1, Haleakala MPS 703630
2016 04 10.60881 16 38 50.459 +02 12 04.94 21.0 w F51 – Pan-STARRS 1, Haleakala MPS 703630
2016 04 10.62068 16 38 50.310 +02 12 07.02 21.1 w F51 – Pan-STARRS 1, Haleakala MPS 703630
2016 05 27.47172 16 19 48.253 +03 26 41.37 20.9 r F51 – Pan-STARRS 1, Haleakala MPS 713796
2016 05 27.47505 16 19 48.148 +03 26 41.16 20.8 r F51 – Pan-STARRS 1, Haleakala MPS 713796
2016 05 27.48385 16 19 47.857 +03 26 41.27 20.6 r F51 – Pan-STARRS 1, Haleakala MPS 713796
2016 05 27.48718 16 19 47.748 +03 26 41.20 20.9 r F51 – Pan-STARRS 1, Haleakala MPS 713796
2016 05 27.49603 16 19 47.482 +03 26 41.32 20.6 r F51 – Pan-STARRS 1, Haleakala MPS 713796
2016 05 27.49934 16 19 47.366 +03 26 41.34 20.9 r F51 – Pan-STARRS 1, Haleakala MPS 713796
2016 06 10.48346 16 12 40.210 +03 14 39.69 20.7 w F51 – Pan-STARRS 1, Haleakala MPS 716563
2016 06 10.49413 16 12 39.899 +03 14 38.80 21.0 w F51 – Pan-STARRS 1, Haleakala MPS 716563
2016 06 10.50481 16 12 39.576 +03 14 37.83 21.0 w F51 – Pan-STARRS 1, Haleakala MPS 716563
2016 06 10.51549 16 12 39.242 +03 14 36.88 20.9 w F51 – Pan-STARRS 1, Haleakala MPS 716563
2016 07 05.39899 16 02 38.894 +02 09 17.38 21.0 w F51 – Pan-STARRS 1, Haleakala MPS 719305
2016 07 05.41105 16 02 38.672 +02 09 14.80 21.0 w F51 – Pan-STARRS 1, Haleakala MPS 719305
2016 07 05.42312 16 02 38.442 +02 09 12.17 21.1 w F51 – Pan-STARRS 1, Haleakala MPS 719305
2018 07 09.48317 20 33 02.718 -21 22 39.44 20.6 w F51 – Pan-STARRS 1, Haleakala MPS 905926
2018 07 09.49423 20 33 02.402 -21 22 42.52 20.6 w F51 – Pan-STARRS 1, Haleakala MPS 905926
2018 07 09.50527 20 33 02.073 -21 22 45.23 20.6 w F51 – Pan-STARRS 1, Haleakala MPS 905926
2018 07 09.51632 20 33 01.753 -21 22 48.25 20.6 w F51 – Pan-STARRS 1, Haleakala MPS 905926
2018 07 11.66122 20 32 00.30 -21 32 20.4 19.0 R D29 – Purple Mountain Observatory, XuYi Station MPS 905926
2018 07 11.68092 20 31 59.73 -21 32 26.1 21.0 R D29 – Purple Mountain Observatory, XuYi Station MPS 905926
